Temperature
4 5 5 5 5 5 4 4 4 5 5 6 6 6 6 7 7 7 7 7 7 6 6 6 6 6 5 5 5 5 5 5 5 5 4 4 4 4 4 4 4 4 4 4
4 5 4 4 4 4 4 5 4 4 5 6 6 7 6 6 6 6 6 6 6 6 6 6 5 5 5 5 5 5 4 4 4 4 4 4 4 4 4 3 3 3 3 3
3 4 4 4 4 4 4 4 4 5 5 5 5 5 5 6 6 6 6 6 6 5 5 5 5 5 5 4 4 4 4 4 4 4 4 4 3 3 3 3 3 3 3 3
2 3 4 5 5 5 4 4 4 4 4 4 5 5 6 6 5 5 5 5 5 5 5 5 5 4 4 4 4 4 3 3 3 3 3 3 3 3 3 2 2 2 2 2
2 2 3 4 5 4 4 4 4 4 4 4 5 4 4 5 5 5 5 5 5 5 4 4 4 4 3 3 3 3 3 3 3 3 3 2 2 2 2 2 2 2 2 2
2 2 3 5 5 5 4 4 4 4 3 4 4 2 3 5 4 4 4 4 4 4 4 3 3 3 3 3 3 3 2 2 2 2 2 2 2 2 2 2 1 1 1 1
1 2 3 4 4 5 4 4 4 4 4 4 3 3 4 4 4 4 4 3 3 3 3 3 3 2 2 2 2 2 2 2 2 2 2 1 1 1 1 1 1 1 1 1
1 1 2 3 3 3 4 4 4 4 4 4 4 4 4 4 3 3 3 3 3 3 2 2 2 2 2 2 2 1 1 1 1 1 1 1 1 1 1 0 0 0 0 0
2 3 3 4 4 4 4 4 4 4 4 4 3 3 3 3 3 3 3 2 2 2 2 2 2 2 2 1 1 1 1 1 1 1 1 1 0 0 0 -0 -0 -0 -0 -0
1 1 2 3 4 4 4 4 4 4 3 3 3 3 3 2 2 2 2 2 2 2 1 1 1 1 1 1 1 1 1 1 0 0 0 0 -0 -0 -0 -1 -1 -1 -1 -1
0 1 2 3 3 4 3 3 3 3 3 3 2 2 2 2 2 2 1 1 1 1 1 1 1 1 1 0 0 0 0 0 0 -0 -0 -0 -0 -1 -1 -1 -1 -1 -1 -1
1 2 1 2 3 3 3 3 3 2 2 2 2 2 1 1 1 1 1 1 1 0 0 0 0 0 0 0 0 0 -0 -0 -0 -0 -1 -1 -1 -1 -1 -1 -1 -1 -2 -2
3 3 3 2 2 2 2 2 2 2 2 1 1 1 1 1 1 0 0 0 0 -0 -0 -0 -0 0 0 -0 -0 -0 -1 -1 -1 -1 -1 -1 -1 -1 -1 -1 -2 -2 -2 -2
2 2 1 1 1 1 1 1 1 1 1 1 1 1 1 0 0 0 -0 -0 -0 -1 -1 -1 -1 -0 -0 -1 -1 -1 -1 -1 -1 -1 -1 -2 -2 -2 -2 -2 -2 -2 -2 -2
1 1 1 1 0 1 1 0 0 0 0 0 0 0 0 -0 -0 -0 -1 -1 -1 -1 -1 -1 -1 -1 -1 -1 -1 -1 -1 -1 -2 -2 -2 -2 -2 -2 -2 -3 -3 -3 -3 -3
0 0 0 -0 -0 -0 -0 -1 -1 -0 -0 -0 -0 -0 -1 -1 -1 -1 -1 -1 -1 -1 -1 -1 -1 -1 -1 -1 -2 -2 -2 -2 -2 -2 -2 -2 -2 -3 -3 -3 -3 -3 -3 -3
-1 -1 -1 -1 -1 -1 -1 -1 -1 -1 -1 -1 -1 -1 -1 -1 -1 -1 -1 -1 -2 -2 -2 -2 -2 -2 -2 -2 -2 -2 -2 -2 -3 -3 -3 -3 -3 -3 -3 -3 -3 -3 -3 -4
-1 -1 -1 -1 -1 -1 -1 -1 -1 -1 -2 -2 -2 -2 -2 -2 -2 -2 -2 -2 -2 -2 -2 -2 -2 -2 -2 -2 -2 -3 -3 -3 -3 -3 -3 -3 -3 -3 -3 -3 -4 -4 -4 -4
-1 -1 -1 -2 -2 -2 -2 -2 -2 -2 -2 -2 -2 -2 -2 -2 -2 -2 -2 -2 -2 -2 -2 -2 -3 -3 -3 -3 -3 -3 -3 -3 -3 -3 -3 -3 -3 -4 -4 -4 -4 -4 -4 -4
-2 -2 -2 -2 -2 -2 -2 -2 -2 -2 -2 -2 -2 -2 -2 -2 -2 -2 -3 -3 -3 -3 -3 -3 -3 -3 -3 -3 -3 -4 -4 -4 -4 -4 -4 -4 -4 -4 -4 -4 -4 -4 -4 -4
-2 -2 -2 -2 -2 -2 -2 -2 -2 -2 -2 -2 -3 -3 -3 -3 -3 -3 -3 -3 -3 -3 -3 -3 -4 -4 -4 -4 -4 -4 -4 -4 -4 -4 -4 -4 -4 -4 -4 -4 -4 -4 -4 -4
-3 -3 -3 -3 -3 -3 -2 -2 -2 -2 -3 -3 -3 -3 -3 -3 -3 -3 -3 -3 -3 -4 -4 -4 -4 -4 -4 -4 -4 -4 -4 -4 -4 -4 -4 -4 -4 -4 -4 -5 -5 -5 -5 -5
-3 -3 -3 -3 -3 -3 -3 -3 -3 -3 -3 -3 -3 -3 -3 -3 -4 -4 -4 -4 -4 -4 -4 -4 -4 -5 -5 -5 -5 -5 -5 -5 -5 -5 -5 -5 -5 -5 -5 -5 -5 -5 -5 -5
-4 -4 -4 -4 -4 -4 -4 -3 -3 -3 -3 -3 -3 -4 -4 -4 -4 -4 -4 -4 -4 -4 -5 -5 -5 -5 -5 -5 -5 -5 -5 -5 -5 -5 -5 -5 -5 -5 -5 -5 -5 -5 -5 -5
-4 -4 -4 -4 -4 -4 -4 -4 -4 -4 -4 -4 -4 -4 -4 -4 -5 -5 -5 -5 -5 -5 -5 -5 -5 -5 -5 -5 -5 -5 -5 -5 -5 -5 -5 -5 -5 -5 -5 -5 -5 -5 -5 -5
-5 -5 -5 -5 -5 -5 -5 -5 -5 -5 -5 -5 -5 -5 -5 -5 -5 -5 -5 -5 -5 -5 -5 -5 -5 -5 -5 -5 -5 -6 -6 -6 -6 -5 -5 -5 -5 -5 -5 -5 -5 -5 -5 -5
-5 -5 -5 -5 -5 -5 -5 -5 -5 -5 -5 -5 -5 -5 -5 -5 -5 -5 -5 -5 -5 -5 -5 -5 -5 -5 -6 -6 -6 -6 -6 -6 -6 -6 -6 -6 -6 -6 -5 -6 -6 -6 -6 -6
Wind_Speed
8 8 6 8 9 8 10 10 9 9 9 11 8 7 6 5 4 4 4 4 4 4 4 4 4 4 4 4 4 4 5 5 5 4 4 3 3 3 3 3 4 3 3 4
6 7 8 10 11 11 11 10 11 11 12 10 7 4 4 4 4 4 4 4 4 4 4 5 5 4 4 4 4 4 5 5 4 4 3 3 4 3 3 3 3 3 3 4
5 4 4 9 10 11 8 7 8 11 12 6 4 5 5 4 4 4 4 4 4 5 5 5 5 4 4 4 4 4 4 4 4 4 4 4 3 3 4 3 3 3 4 4
3 1 7 7 2 6 7 7 7 6 6 5 6 4 3 3 3 4 4 5 5 4 4 3 3 3 3 2 3 4 4 4 4 4 4 3 3 4 4 3 3 4 5 5
3 4 8 7 3 3 5 5 4 7 7 5 2 2 4 3 2 4 4 5 5 4 4 3 3 2 2 2 3 3 4 4 4 4 4 4 4 5 4 3 4 4 4 5
4 5 7 6 2 1 2 4 3 3 5 4 0 1 5 4 3 4 4 3 3 2 2 2 2 2 2 3 3 5 5 5 5 5 5 5 5 5 3 4 5 4 4 4
8 7 8 6 2 3 3 5 3 3 3 3 4 5 4 4 4 3 3 4 3 2 3 3 2 1 2 3 5 6 5 4 4 4 5 5 4 4 3 4 4 4 5 5
7 7 9 3 3 4 6 2 2 3 3 4 4 4 4 4 4 3 3 3 3 3 3 3 2 2 4 5 5 4 3 4 4 4 4 3 4 4 3 3 4 4 4 5
8 8 4 4 6 5 3 3 3 3 4 3 4 4 5 4 4 3 3 3 3 3 4 4 3 3 5 5 4 3 3 4 4 4 3 3 4 4 3 3 3 4 4 5
5 7 5 4 4 4 4 4 4 3 3 3 4 5 5 4 4 4 4 4 3 3 4 5 5 4 5 5 4 3 4 4 4 3 3 3 3 3 4 4 4 4 4 5
6 6 4 5 5 5 4 3 3 3 3 3 4 5 5 4 4 4 4 4 3 4 5 6 6 5 4 4 3 4 4 4 4 4 4 3 4 4 5 5 6 6 5 5
7 6 5 6 5 3 3 4 4 4 4 3 3 5 4 4 4 4 4 4 4 4 5 6 5 6 5 4 4 4 4 4 4 3 3 3 3 4 5 6 8 9 8 7
9 7 6 5 4 3 4 4 4 3 4 4 4 4 4 4 4 4 4 4 5 5 6 6 5 6 5 4 4 4 5 5 4 4 4 4 4 4 4 4 5 7 9 9
6 3 3 4 4 3 3 3 3 2 3 3 4 4 4 4 4 5 5 5 5 5 6 5 5 6 6 4 4 5 5 5 5 4 4 4 4 4 4 4 5 4 5 8
4 4 4 3 2 2 2 1 2 3 3 4 3 4 4 4 5 6 6 5 5 5 5 5 6 6 5 4 4 5 5 4 4 4 4 4 4 4 4 5 5 5 4 5
3 2 2 2 2 2 2 2 3 4 4 4 4 5 5 5 5 5 5 4 4 6 6 6 6 6 5 4 4 4 4 7 6 4 4 4 4 4 5 5 5 5 5 5
2 3 3 2 3 3 3 4 4 5 5 5 6 5 5 4 5 5 6 5 5 6 6 6 7 6 5 4 4 4 4 4 6 4 4 4 4 5 5 5 5 6 5 6
5 5 5 4 4 4 5 4 4 5 5 5 5 4 4 5 6 7 7 6 5 6 6 6 6 5 5 4 4 3 3 3 3 4 4 4 5 5 5 5 6 6 5 6
2 3 4 4 5 5 5 5 5 5 5 5 5 5 6 6 6 6 6 5 5 6 6 6 7 5 5 5 4 3 3 4 4 4 4 6 6 4 5 5 5 6 5 5
2 3 4 4 4 4 5 6 6 6 5 5 5 5 6 6 6 6 5 5 5 6 6 6 5 4 4 5 5 3 4 4 4 4 4 4 5 5 5 5 5 5 5 5
4 4 5 5 5 5 6 6 5 6 6 5 5 6 7 7 6 5 5 6 6 5 5 7 4 4 4 5 5 3 4 4 4 4 4 4 4 5 5 5 5 5 5 5
4 5 5 5 5 6 6 5 5 6 6 6 6 6 6 6 6 5 6 6 6 7 5 4 4 5 6 6 4 4 4 4 4 4 4 4 5 5 5 5 5 5 5 5
5 5 5 6 6 6 6 5 5 5 6 6 6 6 6 6 5 5 6 4 4 7 5 4 6 8 9 5 3 4 4 4 4 4 4 5 5 5 5 5 5 5 5 5
5 6 6 5 4 4 6 6 5 5 5 6 6 6 5 5 5 4 5 7 8 8 5 6 9 9 8 3 3 4 4 4 4 4 4 4 4 4 5 5 5 4 4 4
6 6 5 5 5 5 6 5 5 5 5 5 5 5 5 4 5 5 4 5 7 7 5 6 9 9 5 3 4 4 4 4 5 4 4 4 4 4 4 4 4 4 4 4
5 5 5 5 5 5 5 4 4 4 4 5 5 4 4 3 4 4 4 5 6 7 5 4 5 5 4 4 4 4 4 5 5 4 4 4 4 4 4 4 5 4 4 4
5 4 4 5 4 4 4 4 5 5 4 5 6 5 4 4 4 4 4 4 4 4 4 4 4 4 4 4 4 4 4 4 4 4 4 4 4 4 4 4 4 4 4 4
Wind_Direction
253 263 250 245 247 227 218 217 221 243 242 257 257 255 255 254 246 239 244 238 229 227 231 227 224 223 224 227 218 204 199 207 221 226 224 229 238 240 240 238 239 237 242 248
272 261 259 262 252 237 233 232 238 256 264 261 264 261 267 259 244 245 256 253 248 244 239 232 228 228 229 230 222 203 204 217 224 220 222 230 237 238 240 248 249 244 246 251
262 286 299 265 239 223 220 216 210 236 252 267 262 259 251 249 240 242 254 258 256 253 247 241 238 230 231 234 221 206 216 224 226 223 230 240 241 240 241 246 250 254 255 252
256 285 243 247 238 212 219 237 225 241 266 264 258 255 248 228 232 258 263 266 265 260 262 261 247 240 238 234 214 212 223 230 230 225 235 244 243 243 248 249 252 255 257 254
208 244 271 286 265 202 207 258 238 241 264 275 279 334 299 270 245 248 258 263 262 255 256 254 251 241 235 241 232 227 232 236 236 228 233 237 243 249 249 249 255 255 255 251
204 227 245 249 259 227 139 260 266 230 244 261 203 261 270 287 295 289 286 282 282 282 282 266 265 235 229 244 239 242 242 241 242 233 229 235 242 249 249 243 249 257 262 256
218 236 258 251 259 99 183 253 255 234 235 225 222 230 252 282 295 291 294 299 298 291 282 272 273 251 250 254 252 252 249 247 246 239 234 238 244 247 248 249 256 259 265 269
199 220 248 227 139 185 227 251 228 240 233 233 249 261 269 278 285 295 306 310 303 293 289 283 257 240 254 259 261 259 250 246 245 245 243 241 235 248 248 242 251 260 268 279
201 221 243 196 202 223 217 236 244 243 258 248 257 267 277 277 284 290 291 292 293 275 281 283 265 241 251 264 263 249 244 247 249 251 246 234 230 240 249 239 241 256 261 272
242 257 254 246 246 248 235 232 239 232 248 247 256 265 275 279 286 292 293 289 285 279 283 287 282 269 257 264 256 239 243 249 247 246 254 247 240 235 237 241 246 253 258 265
251 270 293 274 247 245 246 245 250 258 248 242 254 269 268 275 279 279 287 285 277 275 277 282 286 283 276 263 245 243 246 247 247 245 249 255 253 242 242 241 237 245 250 251
244 238 236 256 258 252 248 256 255 258 272 272 249 257 267 272 274 277 283 288 291 285 281 283 284 283 280 267 242 239 249 250 246 245 246 247 255 274 263 255 262 258 257 259
246 252 242 249 253 246 243 251 256 252 254 268 275 261 264 269 274 280 285 288 284 284 282 282 284 284 282 272 252 242 247 250 249 244 240 241 243 248 274 284 271 265 264 265
254 252 257 249 249 260 261 264 261 266 265 260 268 274 275 274 280 283 282 281 282 283 283 279 279 280 280 272 259 252 251 251 248 243 239 239 241 244 248 262 280 281 275 272
253 233 233 244 255 285 288 289 302 297 295 293 287 285 282 278 278 279 282 284 285 285 285 281 281 285 288 273 260 256 255 254 247 243 239 239 241 243 246 251 260 271 279 280
248 248 224 223 257 287 298 290 282 286 292 292 295 292 284 275 274 279 284 283 282 284 285 282 281 284 288 278 270 267 260 257 254 244 239 242 240 241 245 248 255 260 264 267
212 240 238 240 256 266 267 264 261 271 279 281 283 285 289 291 292 292 292 289 280 279 279 275 278 284 283 275 265 265 265 262 259 251 242 242 245 244 245 246 251 258 261 261
222 231 232 228 236 255 268 271 269 272 272 273 280 285 284 282 283 286 290 297 299 297 286 276 277 283 280 277 268 264 262 258 252 251 250 248 252 248 248 249 253 259 268 270
252 240 246 248 246 245 252 260 265 266 269 272 273 273 272 271 272 277 284 287 288 292 292 286 290 289 281 277 277 262 254 257 261 260 256 257 262 255 250 252 257 260 264 267
280 270 267 270 265 253 257 263 266 268 267 262 265 273 279 278 275 277 276 272 267 268 279 290 291 282 278 275 276 263 252 251 257 264 261 254 254 255 253 254 257 259 261 263
280 281 281 279 278 274 265 263 262 266 270 260 255 263 271 277 276 270 272 283 283 278 282 290 289 281 280 281 279 264 254 254 255 256 256 256 259 260 259 256 256 259 260 262
277 278 282 282 279 282 281 272 262 263 268 267 262 262 269 278 279 277 263 259 274 290 296 284 282 285 291 291 276 264 260 258 258 255 252 253 255 257 258 257 257 259 258 258
277 276 278 278 274 277 285 283 271 264 262 262 262 263 264 267 268 273 285 278 269 285 292 277 288 295 299 295 278 271 267 264 262 258 254 252 253 254 256 258 259 258 256 256
276 276 275 276 276 280 286 287 284 276 268 269 267 263 262 274 280 263 259 278 288 292 285 283 293 298 301 292 278 275 271 268 266 262 256 254 252 253 255 257 260 259 255 251
274 274 276 280 280 275 272 281 289 287 283 281 277 271 263 256 262 276 275 272 282 293 287 287 293 297 297 280 274 273 273 269 268 266 258 257 255 255 255 254 255 256 255 252
276 277 275 271 269 274 278 278 279 280 281 286 290 284 275 269 263 268 274 275 277 290 292 286 287 291 287 281 276 273 273 276 278 271 261 261 260 259 260 259 257 256 255 255
285 283 286 290 286 276 272 270 272 277 277 278 287 290 285 280 276 275 276 280 283 286 287 286 282 278 279 278 277 275 273 274 271 267 263 260 257 255 254 254 255 255 253 252
Height
1503 1499 1500 1499 1498 1498 1500 1498 1500 1491 1488 1481 1479 1478 1476 1475 1475 1475 1474 1474 1474 1473 1473 1473 1473 1473 1473 1473 1473 1473 1473 1473 1472 1472 1472 1472 1471 1471 1470 1470 1470 1470 1469 1469
1502 1498 1497 1496 1493 1492 1491 1490 1490 1487 1482 1475 1475 1475 1474 1473 1473 1472 1471 1471 1471 1470 1470 1470 1470 1470 1470 1469 1469 1469 1469 1469 1468 1468 1468 1468 1467 1467 1466 1466 1466 1465 1465 1465
1503 1498 1495 1492 1484 1484 1484 1482 1482 1481 1476 1473 1473 1472 1471 1471 1470 1469 1469 1468 1468 1467 1467 1466 1466 1466 1466 1466 1465 1465 1465 1465 1465 1464 1464 1463 1463 1463 1462 1462 1461 1461 1460 1460
1503 1500 1497 1480 1475 1474 1476 1476 1476 1474 1472 1471 1470 1469 1468 1468 1467 1467 1467 1466 1465 1464 1464 1463 1463 1463 1463 1462 1462 1461 1461 1461 1461 1460 1460 1459 1459 1458 1458 1458 1457 1456 1456 1455
1502 1499 1488 1478 1473 1473 1475 1473 1472 1471 1469 1468 1468 1468 1466 1466 1465 1465 1464 1463 1462 1461 1461 1460 1460 1459 1459 1458 1458 1457 1457 1457 1456 1456 1455 1455 1455 1454 1453 1453 1452 1452 1451 1450
1498 1495 1488 1474 1470 1468 1471 1472 1468 1467 1466 1466 1466 1469 1466 1464 1463 1462 1461 1460 1459 1458 1457 1456 1456 1455 1454 1454 1453 1453 1453 1452 1452 1452 1451 1451 1450 1450 1449 1448 1448 1447 1446 1445
1494 1491 1480 1471 1468 1468 1475 1470 1466 1464 1464 1464 1464 1464 1463 1461 1460 1459 1458 1457 1456 1455 1454 1453 1452 1451 1450 1450 1449 1449 1448 1448 1447 1447 1447 1446 1445 1445 1444 1444 1443 1442 1441 1440
1487 1488 1480 1466 1467 1469 1467 1464 1463 1463 1462 1462 1461 1460 1459 1458 1457 1456 1454 1453 1452 1451 1450 1449 1448 1447 1446 1445 1445 1444 1444 1443 1442 1442 1442 1441 1441 1440 1440 1439 1438 1437 1436 1435
1474 1471 1464 1462 1462 1462 1462 1462 1461 1461 1460 1460 1459 1458 1457 1456 1454 1453 1452 1450 1449 1448 1446 1445 1444 1443 1442 1441 1441 1440 1439 1438 1438 1437 1437 1437 1436 1435 1435 1434 1433 1432 1431 1430
1469 1463 1460 1460 1460 1460 1460 1460 1459 1459 1458 1457 1456 1455 1454 1452 1451 1450 1448 1447 1445 1444 1442 1441 1440 1439 1438 1437 1436 1435 1434 1434 1433 1433 1432 1432 1431 1431 1430 1429 1428 1427 1426 1425
1464 1460 1458 1457 1457 1457 1457 1457 1456 1456 1455 1454 1453 1452 1451 1449 1448 1446 1445 1443 1442 1440 1438 1437 1436 1435 1434 1433 1432 1431 1430 1430 1429 1429 1428 1427 1427 1426 1425 1425 1424 1423 1422 1421
1459 1456 1456 1454 1454 1454 1454 1453 1453 1452 1451 1450 1449 1448 1447 1445 1444 1443 1441 1439 1438 1436 1434 1433 1432 1430 1429 1428 1427 1426 1425 1425 1425 1424 1424 1423 1422 1421 1420 1420 1419 1418 1418 1417
1452 1451 1451 1451 1451 1450 1450 1449 1449 1448 1447 1446 1445 1444 1443 1441 1440 1439 1437 1435 1433 1432 1430 1429 1427 1426 1425 1424 1423 1422 1421 1421 1420 1420 1419 1418 1417 1416 1415 1415 1414 1413 1413 1412
1448 1448 1447 1447 1447 1447 1446 1446 1445 1444 1443 1442 1441 1440 1439 1437 1436 1434 1433 1431 1429 1428 1426 1425 1423 1422 1421 1420 1419 1418 1417 1416 1415 1415 1414 1413 1413 1412 1411 1409 1408 1407 1408 1407
1444 1444 1443 1443 1443 1443 1442 1441 1441 1440 1439 1438 1437 1436 1435 1433 1431 1430 1429 1427 1425 1423 1422 1420 1418 1417 1416 1415 1414 1413 1412 1411 1410 1410 1409 1408 1408 1407 1406 1405 1404 1402 1402 1401
1439 1439 1439 1439 1439 1439 1439 1438 1437 1436 1435 1434 1433 1432 1431 1429 1427 1426 1425 1423 1421 1419 1417 1416 1414 1413 1412 1411 1409 1408 1407 1406 1406 1405 1404 1403 1403 1402 1401 1400 1399 1398 1397 1396
1436 1436 1436 1436 1436 1436 1435 1435 1434 1433 1432 1431 1430 1428 1427 1425 1423 1422 1420 1419 1417 1415 1413 1412 1410 1408 1407 1406 1405 1404 1403 1401 1401 1400 1399 1398 1398 1397 1396 1395 1394 1393 1392 1392
1434 1434 1433 1433 1433 1433 1432 1432 1431 1430 1429 1427 1426 1425 1423 1421 1419 1417 1416 1414 1412 1410 1409 1407 1405 1404 1402 1401 1400 1399 1398 1397 1396 1395 1394 1394 1393 1392 1391 1390 1389 1389 1388 1387
1431 1431 1431 1431 1430 1430 1429 1428 1427 1426 1425 1424 1422 1421 1419 1417 1416 1414 1412 1410 1407 1405 1404 1402 1401 1399 1398 1397 1395 1394 1393 1392 1391 1390 1390 1389 1388 1387 1387 1386 1385 1384 1383 1382
1429 1429 1428 1427 1427 1426 1425 1424 1423 1422 1421 1420 1418 1416 1415 1413 1412 1410 1408 1405 1403 1402 1400 1398 1396 1395 1393 1392 1391 1390 1389 1388 1387 1386 1385 1384 1383 1383 1382 1381 1380 1379 1378 1377
1426 1426 1425 1423 1422 1422 1421 1420 1418 1417 1416 1415 1414 1412 1410 1409 1407 1405 1403 1401 1399 1398 1396 1394 1392 1390 1389 1387 1386 1385 1384 1383 1382 1381 1380 1380 1379 1378 1377 1377 1376 1375 1374 1373
1423 1422 1421 1419 1418 1417 1416 1415 1414 1412 1411 1410 1409 1407 1406 1404 1402 1400 1399 1397 1395 1393 1391 1389 1388 1386 1385 1383 1381 1380 1379 1379 1378 1377 1376 1375 1374 1373 1373 1372 1371 1370 1369 1368
1420 1418 1417 1415 1414 1412 1411 1410 1409 1408 1406 1405 1404 1402 1401 1399 1398 1396 1394 1392 1391 1389 1387 1385 1384 1382 1381 1379 1377 1376 1375 1374 1373 1372 1371 1371 1370 1369 1368 1367 1367 1366 1365 1364
1416 1414 1413 1411 1410 1408 1406 1405 1404 1403 1401 1400 1399 1398 1396 1394 1393 1391 1390 1388 1387 1385 1383 1381 1380 1378 1377 1375 1374 1372 1371 1370 1369 1368 1367 1366 1365 1365 1364 1363 1362 1362 1361 1360
1411 1410 1408 1406 1405 1403 1402 1400 1399 1398 1396 1395 1394 1393 1392 1390 1389 1387 1385 1384 1382 1381 1379 1377 1376 1374 1373 1371 1370 1368 1367 1366 1365 1364 1363 1362 1361 1360 1360 1359 1358 1357 1357 1356
1406 1405 1403 1402 1400 1399 1397 1396 1394 1393 1392 1390 1388 1387 1386 1385 1384 1382 1380 1379 1378 1376 1374 1373 1371 1370 1368 1367 1366 1364 1363 1362 1361 1360 1359 1358 1357 1356 1355 1355 1354 1353 1353 1352
1402 1400 1398 1397 1395 1394 1393 1391 1390 1388 1387 1385 1384 1382 1382 1380 1379 1377 1376 1374 1373 1372 1370 1369 1367 1366 1365 1363 1362 1360 1359 1358 1357 1356 1355 1354 1353 1352 1351 1351 1350 1349 1349 1348